Simultaneous Nadir Overpasses (SNOs) Predictions

Prediction of SNOs between METOP-B and NOAA-19 Satellite Orbit:

Table of predicted SNOs for the next 14.0 days since TLE Epoch: 5/14/2022
Index Date (METOP-B) Time (METOP-B) Lat,Lon (METOP-B) SZA (METOP-B ) Date (NOAA-19) Time (NOAA-19) Lat,Lon (NOAA-19) SZA (NOAA-19 ) Distance(km) Time Diff (sec)
1 05/23/2022 07:01:40 80.84, 107.74 61.87 05/23/2022 07:00:36 80.83, 107.67 61.84 1.22 64
2 05/23/2022 07:52:21 -80.84, -84.95 118.15 05/23/2022 07:51:35 -80.83, -85.04 118.17 1.64 46
3 05/23/2022 08:43:02 80.83, 82.23 61.83 05/23/2022 08:42:36 80.83, 82.16 61.82 1.49 26
4 05/23/2022 09:33:43 -80.83,-110.46 118.18 05/23/2022 09:33:35 -80.83,-110.56 118.19 2.06 8
5 05/23/2022 10:24:23 80.84, 57.08 61.84 05/23/2022 10:24:35 80.83, 57.01 61.83 1.73 12
6 05/23/2022 11:15:04 -80.84,-135.61 118.17 05/23/2022 11:15:34 -80.83,-135.72 118.18 2.25 30
7 05/23/2022 12:05:45 80.83, 31.57 61.81 05/23/2022 12:06:35 80.83, 31.49 61.82 1.42 50



Historial Predications of SNOs between METOP-B and NOAA-19
